Location: Four Corners
(38.2757°N, 122.4608°W)
Time: 06:24:26
(UTC+00:00)

Envisat - Pass Details

Date: 08 December 2019
Orbit: 764 x 766 km, 98.1° (Epoch: 28 January)

Event Time Altitude Azimuth Distance (km) Brightness Sun altitude
Rises 02:05:57 0° 165° (SSE) 3,217 6.3 -14.7°
Reaches altitude 10° 02:08:14 10° 165° (SSE) 2,295 5.5 -15.1°
Maximum altitude 02:13:18 87° 76° (ENE) 772 2.9 -16.0°
Drops below altitude 10° 02:18:25 10° 348° (NNW) 2,311 5.4 -17.0°
Sets 02:20:44 0° 348° (NNW) 3,241 6.2 -17.4°
